Starlink 2396

operational
NORAD ID: 47815 Int'l Des: 2021-018 Owner: SPXS Country: US Constellation: starlink
LEOCIRCULARSTARLINK_TYPE

Starlink 2396について

説明を読み込み中...

リアルタイム位置

3D地球を読み込み中...

次回通過

高度履歴

Altitude vs Time

uPlot chart will show altitude changes over time

軌道要素

1 47815U 21018AE 25278.13436270 -.00000244 00000-0 24955-5 0 9998
2 47815 53.0536 224.9349 0001620 92.3351 267.7823 15.06395482253215
Epoch: Oct 5, 2025 • Age: 8 hours

現在のステータス

高度 561.3 km
速度 7.58 km/s
衛星直下点 -39.85°S, 6.21°E
打ち上げ日 Mar 11, 2021
運用期間 4.5 years
タイプ internet

技術仕様

分類 Payload
質量 260.00 kg
乾燥質量 248.00 kg
総質量 260.00 kg
長さ 0.20 m
直径 2.80 m
スパン 9.00 m
形状 Box + pan
製造者 SPXS
バスタイプ Starlink
フェーズステータス In Orbit
所有者/国 SPXS/US

大規模コンステレーション

Loading constellations...